DMSP 5D-2 F13 DEB, 40558

Orbit data source: Space-Track

DMSP 5D-2 F13 DEB, 40558 is space debris in SSO originally from a launch on Fri, 24 Mar 1995 UTC launched from the Air Force Western Test Range (AFWTR). Debris objects in space refer to the collection of defunct objects orbiting the Earth. Examples of debris include non-operational satellites, rocket bodies, and fragments generated from explosions, collisions, or faulty payload assembly.

Loading next visibility...
Identifier
40558, 1995-015DR
Orbit
SSO
Country
Flag of USUS
Related business
Manufacturer
Unknown
Mission
Spacecraft
Bus & Motor
Unknown
Mass
Unknown
Launch date (UTC)
1995-03-24 (31 years ago)
Launch vehicle
Unknown
Launch site
Air Force Western Test Range (AFWTR)
Object type
Payload
Rocket body
Debris
Shape & HBR
Unknown shape, 0.1 m
Radar Cross Section
Small (<0.1 m²)

Expand to show TLE details & history
Last TLE update: 18 hours ago

TLE from 18 hours ago
0 DMSP 5D-2 F13 DEB
1 40558U 95015DR  26035.17033126  .00004541  00000-0  19850-2 0  9990
2 40558  98.9582  26.8615 0044633  84.8434 275.7835 14.23765720557612
Epoch: 2026-02-04T04:05Z
TLE epoch observation values (Epoch: 2026-02-04T04:05:16.620Z)
Latitude
-0.00009°
Longitude
-168.79849°
Altitude
812.464 km
Speed
7.449 km/s
True Right ascension
01h 47m 26s
True Declination
0° 00' 00"
Sunlit
Object was in daylight at epoch
Visualization orbit readout
Latitude
Unknown
Longitude
Unknown
Altitude
Unknown
Speed
Unknown
Apparent Right ascension
Unknown
Apparent Declination
Unknown
Sunlit
N/A
Visualization observer readout
Local Sidereal Time
00:06:23
Azimuth
Unknown
Elevation
Unknown
Doppler factor
Unknown
Orbital elements
Apogee altitude
841.893 km
Perigee altitude
777.729 km
Semi-major axis
7,187.948 km
Eccentricity
0.00446
Inclination
98.9582°
RAAN
26.8615°
Arg. of periapsis
84.8434°
True anomaly
275.27437°
Mean anomaly
275.7835°
Eccentric anomaly
275.52896°
Mean motion
3.56152 °/min
Orbital period
101.08 mins
BSTAR
0.001985
Loading maneuver chart data...
Computing Atmospheric mass density...

Documentation

Showing up to 5 results
|